TimeCST,TemperatureF,Dew PointF,Humidity,Sea Level PressureIn,VisibilityMPH,Wind Direction,Wind SpeedMPH,Gust SpeedMPH,PrecipitationIn,Events,Conditions,WindDirDegrees,DateUTC
12:55 AM,33.1,29.1,85,30.10,10.0,ESE,4.6,-,N/A,,Overcast,120,2012-12-28 06:55:00
1:55 AM,32.9,29.5,87,30.10,10.0,East,3.5,-,N/A,,Overcast,100,2012-12-28 07:55:00
2:19 AM,32.0,30.2,93,30.10,10.0,East,3.5,-,N/A,,Scattered Clouds,100,2012-12-28 08:19:00
2:55 AM,32.7,29.3,87,30.11,10.0,Calm,Calm,-,N/A,,Mostly Cloudy,0,2012-12-28 08:55:00
3:55 AM,32.4,30.0,91,30.06,10.0,ESE,5.8,-,N/A,,Overcast,110,2012-12-28 09:55:00
4:55 AM,33.1,29.3,86,30.08,10.0,South,4.6,-,N/A,,Overcast,180,2012-12-28 10:55:00
5:55 AM,33.1,29.8,88,30.09,10.0,South,3.5,-,N/A,,Overcast,180,2012-12-28 11:55:00
6:55 AM,32.5,29.7,89,30.11,10.0,SSE,3.5,-,N/A,,Mostly Cloudy,160,2012-12-28 12:55:00
7:55 AM,33.1,29.8,88,30.10,10.0,SE,4.6,-,N/A,,Mostly Cloudy,140,2012-12-28 13:55:00
8:55 AM,34.3,30.0,84,30.11,10.0,SSE,3.5,-,N/A,,Overcast,160,2012-12-28 14:55:00
9:55 AM,35.8,30.4,81,30.09,10.0,SE,3.5,-,N/A,,Overcast,130,2012-12-28 15:55:00
10:55 AM,37.6,31.8,80,30.03,10.0,ESE,9.2,-,N/A,,Overcast,110,2012-12-28 16:55:00
11:55 AM,38.1,31.6,77,30.00,10.0,ESE,8.1,-,N/A,,Overcast,120,2012-12-28 17:55:00
12:55 PM,38.7,32.2,78,29.97,10.0,East,6.9,-,N/A,,Overcast,80,2012-12-28 18:55:00
1:41 PM,39.2,33.8,81,29.95,10.0,East,9.2,-,N/A,,Light Drizzle,80,2012-12-28 19:41:00
1:55 PM,38.5,34.2,84,29.94,10.0,East,9.2,-,0.00,,Light Drizzle,90,2012-12-28 19:55:00
2:55 PM,37.9,36.0,93,29.92,10.0,East,8.1,-,0.01,,Drizzle,80,2012-12-28 20:55:00
3:55 PM,37.6,37.2,99,29.89,8.0,ESE,9.2,-,0.04,Rain,Light Rain,110,2012-12-28 21:55:00
4:13 PM,37.4,37.4,100,29.89,6.0,East,8.1,-,N/A,Rain,Light Rain,100,2012-12-28 22:13:00
4:46 PM,37.4,37.4,100,29.88,10.0,East,10.4,-,N/A,,Light Drizzle,100,2012-12-28 22:46:00
4:53 PM,37.4,37.4,100,29.87,10.0,East,11.5,-,N/A,,Overcast,100,2012-12-28 22:53:00
4:55 PM,37.0,36.9,99,29.87,10.0,East,9.2,-,0.04,,Overcast,100,2012-12-28 22:55:00
5:12 PM,37.4,37.4,100,29.86,10.0,ESE,10.4,-,N/A,,Overcast,110,2012-12-28 23:12:00
5:38 PM,37.4,37.4,100,29.85,10.0,East,10.4,-,N/A,,Overcast,100,2012-12-28 23:38:00
5:53 PM,37.4,37.4,100,29.82,10.0,East,11.5,-,N/A,,Overcast,100,2012-12-28 23:53:00
5:55 PM,36.7,36.7,100,29.82,10.0,East,11.5,-,0.00,,Light Drizzle,100,2012-12-28 23:55:00
6:04 PM,37.4,37.4,100,29.81,10.0,ESE,11.5,-,N/A,,Overcast,110,2012-12-29 00:04:00
6:14 PM,37.4,37.4,100,29.81,10.0,East,12.7,-,N/A,,Overcast,100,2012-12-29 00:14:00
6:46 PM,37.4,37.4,100,29.81,10.0,ESE,6.9,-,N/A,,Overcast,110,2012-12-29 00:46:00
6:52 PM,37.4,37.4,100,29.80,8.0,ESE,8.1,-,N/A,,Overcast,110,2012-12-29 00:52:00
6:53 PM,37.4,37.4,100,29.81,8.0,ESE,9.2,-,N/A,,Overcast,110,2012-12-29 00:53:00
6:55 PM,36.9,36.9,100,29.81,7.0,ESE,8.1,-,0.01,,Overcast,110,2012-12-29 00:55:00
7:02 PM,37.4,37.4,100,29.81,8.0,ESE,8.1,-,N/A,,Light Drizzle,110,2012-12-29 01:02:00
7:08 PM,37.4,37.4,100,29.80,6.0,East,8.1,-,N/A,,Drizzle,80,2012-12-29 01:08:00
7:15 PM,37.4,37.4,100,29.79,6.0,ENE,6.9,-,N/A,,Heavy Drizzle,70,2012-12-29 01:15:00
7:20 PM,37.4,37.4,100,29.79,5.0,ENE,8.1,-,N/A,Rain,Light Rain,70,2012-12-29 01:20:00
7:36 PM,37.4,37.4,100,29.81,4.0,NNE,3.5,-,N/A,Rain,Rain,20,2012-12-29 01:36:00
7:55 PM,36.9,36.9,100,29.84,3.0,NW,5.8,-,0.09,Rain,Rain,310,2012-12-29 01:55:00
8:33 PM,37.4,37.4,100,29.82,4.0,NNE,6.9,-,N/A,,Light Drizzle,20,2012-12-29 02:33:00
8:42 PM,37.4,37.4,100,29.82,5.0,North,5.8,-,N/A,,Light Drizzle,10,2012-12-29 02:42:00
8:43 PM,37.4,37.4,100,29.82,5.0,North,5.8,-,N/A,,Light Drizzle,10,2012-12-29 02:43:00
8:52 PM,37.4,37.4,100,29.82,5.0,North,4.6,-,N/A,,Light Drizzle,10,2012-12-29 02:52:00
8:55 PM,36.5,36.5,100,29.81,5.0,North,4.6,-,0.04,,Light Drizzle,360,2012-12-29 02:55:00
9:17 PM,35.6,35.6,100,29.80,6.0,Calm,Calm,-,N/A,,Light Drizzle,0,2012-12-29 03:17:00
9:22 PM,37.4,37.4,100,29.80,5.0,NE,3.5,-,N/A,,Light Drizzle,50,2012-12-29 03:22:00
9:24 PM,37.4,37.4,100,29.80,5.0,NE,3.5,-,N/A,,Overcast,50,2012-12-29 03:24:00
9:32 PM,37.4,37.4,100,29.79,5.0,North,4.6,-,N/A,,Light Drizzle,10,2012-12-29 03:32:00
9:40 PM,37.4,37.4,100,29.80,6.0,NE,4.6,-,N/A,,Light Drizzle,40,2012-12-29 03:40:00
9:43 PM,37.4,37.4,100,29.80,6.0,NE,3.5,-,N/A,,Overcast,40,2012-12-29 03:43:00
9:55 PM,36.7,36.7,100,29.81,6.0,NE,3.5,-,0.00,,Overcast,40,2012-12-29 03:55:00
10:40 PM,37.4,37.4,100,29.80,5.0,Calm,Calm,-,N/A,,Light Drizzle,0,2012-12-29 04:40:00
10:43 PM,37.4,37.4,100,29.79,4.0,North,3.5,-,N/A,,Light Drizzle,350,2012-12-29 04:43:00
10:55 PM,36.5,36.5,100,29.79,3.0,Calm,Calm,-,0.00,,Light Drizzle,0,2012-12-29 04:55:00
10:57 PM,37.4,37.4,100,29.80,3.0,Calm,Calm,-,N/A,,Overcast,0,2012-12-29 04:57:00
11:08 PM,35.6,35.6,100,29.78,3.0,Calm,Calm,-,N/A,,Overcast,0,2012-12-29 05:08:00
11:13 PM,37.4,37.4,100,29.78,4.0,Calm,Calm,-,N/A,,Overcast,0,2012-12-29 05:13:00
11:37 PM,37.4,37.4,100,29.79,6.0,Calm,Calm,-,N/A,,Light Drizzle,0,2012-12-29 05:37:00
11:44 PM,37.4,37.4,100,29.79,6.0,South,3.5,-,N/A,,Light Drizzle,180,2012-12-29 05:44:00
11:47 PM,37.4,37.4,100,29.79,5.0,South,3.5,-,N/A,,Light Drizzle,180,2012-12-29 05:47:00
11:55 PM,36.9,36.9,100,29.78,5.0,Calm,Calm,-,0.01,,Light Drizzle,0,2012-12-29 05:55:00